Location: El Limón
(10.3059°N, 67.6321°W)
Time: 14:02:12
(UTC+00:00)

SL-08 RB Rocket - Pass Details

Date: 14 April 2024
Orbit: 639 x 676 km, 97.8° (Epoch: 29 May)

Event Time Altitude Azimuth Distance (km) Brightness Sun altitude
Rises 09:33:38 0° 10° (N) 3,011 7.4 -12.1°
Reaches altitude 10° 09:35:52 10° 9° (N) 2,094 6.6 -11.5°
Maximum altitude 09:40:27 84° 282° (WNW) 674 3.7 -10.4°
Drops below altitude 10° 09:44:59 10° 194° (SSW) 2,074 6.0 -9.3°
Sets 09:47:12 0° 193° (SSW) 2,980 6.8 -8.8°
